COSMOS 1375 DEB, 16209

Orbit data source: Space-Track

COSMOS 1375 DEB, 16209 is space debris in LEO originally from a launch on Sun, 06 Jun 1982 UTC launched from the Plesetsk Missile And Space Complex (PKMTR). Debris objects in space refer to the collection of defunct objects orbiting the Earth. Examples of debris include non-operational satellites, rocket bodies, and fragments generated from explosions, collisions, or faulty payload assembly.

Loading next visibility...
Identifier
16209, 1982-055L
Orbit
LEO
Country
Flag of CISCIS
Related business
Manufacturer
Unknown
Mission
Spacecraft
Bus & Motor
Unknown
Mass
Unknown
Launch date (UTC)
1982-06-06 (44 years ago)
Launch vehicle
Unknown
Launch site
Plesetsk Missile And Space Complex (PKMTR)
Object type
Payload
Rocket body
Debris
Shape & HBR
Unknown shape, 0.6 m
Radar Cross Section
Medium (>0.1 m² and <1 m²)

Expand to show TLE details & history
Last TLE update: 2 days ago

TLE from 2 days ago
0 COSMOS 1375 DEB
1 16209U 82055L   26171.36363993 -.00000055  00000-0  27727-4 0  9997
2 16209  65.8359 264.6384 0018962 340.5667  80.4281 13.71425166 40863
Epoch: 2026-06-20T08:43Z
TLE epoch observation values (Epoch: 2026-06-20T08:43:38.489Z)
Latitude
53.2086°
Longitude
-98.2088°
Altitude
999.938 km
Speed
7.358 km/s
True Right ascension
20h 05m 07s
True Declination
53° 02' 56"
Sunlit
Object was in daylight at epoch
Visualization orbit readout
Latitude
Unknown
Longitude
Unknown
Altitude
Unknown
Speed
Unknown
Apparent Right ascension
Unknown
Apparent Declination
Unknown
Sunlit
N/A
Visualization observer readout
Local Sidereal Time
02:00:08
Azimuth
Unknown
Elevation
Unknown
Doppler factor
Unknown
Orbital elements
Apogee altitude
1,006.955 km
Perigee altitude
979.001 km
Semi-major axis
7,371.115 km
Eccentricity
0.0019
Inclination
65.8359°
RAAN
264.6384°
Arg. of periapsis
340.5667°
True anomaly
80.64245°
Mean anomaly
80.4281°
Eccentric anomaly
80.53527°
Mean motion
3.4296 °/min
Orbital period
104.97 mins
BSTAR
0.000027727
Loading maneuver chart data...
Computing Atmospheric mass density...
Loading historical data...
Loading historical data...
Loading historical data...
Loading historical data...
Loading historical data...
Loading historical data...
Loading historical data...

Documentation

Showing up to 5 results
|